This demonstration page uses our WeatherBlox Daily Observations layout. Learn more.

Left ArrowRight Arrow

53.62937, 11.41316

Hourly Observations for April 28, 2016

Temp ( °F °C ) Dew Point ( °F °C ) Humidity (%) Winds ( mph kmh ) Pressure ( in mb ) Visibility ( mi km ) Precip ( " mm )
6:20 am 06:20 Mostly Cloudy 39 4 37 3 93 93 SW 10 17 29.74 1007 30 48 N/A
6:50 am 06:50 Mostly Cloudy 39 4 37 3 93 93 SW 14 22 29.74 1007 30 48 N/A
7:20 am 07:20 Mostly Cloudy 39 4 37 3 93 93 WSW 14 22 29.74 1007 30 48 N/A
7:50 am 07:50 Mostly Cloudy 39 4 36 2 87 87 WSW 14 22 29.77 1008 30 48 N/A
8:20 am 08:20 Mostly Cloudy 39 4 36 2 87 87 WSW 15 24 29.77 1008 30 48 N/A
8:50 am 08:50 Mostly Cloudy 39 4 37 3 93 93 WSW 15 24 29.77 1008 30 48 N/A
9:20 am 09:20 Mostly Cloudy 39 4 36 2 87 87 WSW 13 20 29.77 1008 30 48 N/A
9:50 am 09:50 Mostly Cloudy 41 5 37 3 87 87 WSW 15 24 29.80 1009 30 48 N/A
10:20 am 10:20 Mostly Cloudy 41 5 37 3 87 87 WSW 15 24 29.80 1009 30 48 N/A
10:50 am 10:50 Mostly Cloudy 41 5 37 3 87 87 WSW 14 22 29.80 1009 30 48 N/A
11:20 am 11:20 Mostly Cloudy 43 6 37 3 81 81 WSW 15 24 29.83 1010 30 48 N/A
11:50 am 11:50 Mostly Cloudy 43 6 36 2 76 76 WSW 15 24 29.83 1010 30 48 N/A
12:20 pm 12:20 Mostly Cloudy with Drizzle 43 6 36 2 76 76 WSW 13 20 29.83 1010 30 48 N/A
12:50 pm 12:50 Mostly Cloudy 43 6 36 2 76 76 WSW 14 22 29.83 1010 30 48 N/A
1:20 pm 13:20 Mostly Cloudy 43 6 36 2 76 76 WSW 13 20 29.83 1010 30 48 N/A
1:50 pm 13:50 Mostly Cloudy 46 8 37 3 71 71 WSW 9 15 29.83 1010 30 48 N/A
2:20 pm 14:20 Mostly Cloudy 45 7 37 3 76 76 SW 13 20 29.85 1011 30 48 N/A
2:50 pm 14:50 Mostly Cloudy with Light Showers 39 4 37 3 93 93 W 16 26 29.85 1011 5 8 N/A
3:20 pm 15:20 Mostly Cloudy 43 6 39 4 87 87 WSW 8 13 29.85 1011 30 48 N/A
3:50 pm 15:50 Mostly Cloudy 45 7 39 4 81 81 WSW 12 19 29.88 1012 30 48 N/A
4:20 pm 16:20 Mostly Cloudy 46 8 39 4 76 76 WSW 13 20 29.88 1012 30 48 N/A
4:50 pm 16:50 Mostly Cloudy with Light Showers 43 6 36 2 76 76 W 14 22 29.88 1012 30 48 N/A
5:20 pm 17:20 Cloudy with Light Showers 43 6 37 3 81 81 WSW 7 11 29.88 1012 30 48 N/A
5:50 pm 17:50 Mostly Cloudy 45 7 37 3 76 76 WSW 8 13 29.91 1013 30 48 N/A
6:20 pm 18:20 Mostly Cloudy 45 7 37 3 76 76 SW 8 13 29.91 1013 30 48 N/A
6:50 pm 18:50 Mostly Cloudy 46 8 37 3 71 71 SSW 7 11 29.91 1013 30 48 N/A

Powered by AerisWeather